Dauntless Aviation
Greetings, Guest! To participate, [sign up for a free account] or [log in]
Airports Asia Indonesia
WIHH
HLP

Halim Perdanakusuma International Airport

Jakarta, INDONESIA

Airport Info
Edit

Location

Latitude / Longitude: 6°15'59"S / 106°53'27"E
  6°15.996'S / 106°53.46'E
  -6.2666 / 106.8910

Nearby radio navigation aids

AL HALIM PERDANAKUSUMA NDB. 243.5° 9.9nm from AL to field.
HLM HALIM PERDANAKUSUMA VOR/DME on field.

Runway Information

Runway 06 /24

Dimensions: 9843 x 197 ft.
Surface: ASP
 
Runway 06
Runway 24
Latitude: -6.272253 -6.261711
Longitude: 106.878792 106.9018
Elevation: 79 ft. 79 ft.
Runway true heading: 64 244
 

Instrument Procedures

  Aerodrome Chart

IAPs (Instrument Approach Procedures)

  ILS Rwy 24
  VOR Rwy 24
  VOR/DME Rwy 24
  VOR Rwy 06
  NDB Rwy 24

Departure Procedures

  SID 2M Departures
  SID 1H/ 2H Departures
Satellite photo at:
Airport distance calculator
From:
Weather Reports

METAR

WIII
15.6nm W
WIII 302030Z 14004KT 2800 BR SCT022 26/22 Q1012 NOSIG

TAF

WIHH
TAF WIHH 301700Z 3018/0118 00000KT 4000 HZ FEW018 BECMG 0101/0103 19010KT 5000 SCT018 BECMG 0111/0113 VRB05KT 4000 FEW018
WIII
15.6nm W
TAF WIII 301700Z 3018/0124 VRB02KT 4000 HZ FEW022 BECMG 0101/0103 07008KT 8000 NSW SCT022 BECMG 0105/0107 02012KT 9999 BECMG 0112/0114 05005KT 7000 FEW021 BECMG 0117/0119 VRB04KT 4000 HZ
Safelog

 

Dauntless Aviation

© 2007-2015 Dauntless Aviation, all rights reserved
Information provided via PilotNav comes from a variety of official and unofficial data sources. As errors are possible, do not use PilotNav for primary flight planning purposes. Verify any information that you receive via PilotNav with current and canonical charts and other official documents. The material in this database is subject to database copyrights held by Dauntless Aviation and may not be copied without the express permission of Dauntless Aviation - licenses for use of part of all of this data are available for purchase; enquire via the Dauntless Aviation helpdesk. A number of mechanisms and markers exist in the database to protect against and identify infringement / copyright. Automated queries against this website are stictly prohibited, and all activity is logged and analyzed.